Temp
74 77 81 75 58 61 59 61 72 70 70 74 78 74 66 67 63 55 75 78 77 75 75 75 74 75 75 75 75 75 75 75 76 76 76 76 75 75 75 75 75 75 75 75 74 74 73 72 72
78 82 77 68 57 53 59 65 65 71 74 76 76 73 71 61 69 70 70 78 77 76 76 75 72 74 74 74 74 74 74 75 76 76 76 75 75 75 75 75 75 75 75 75 74 73 73 72 72
78 82 64 62 59 55 59 68 70 73 76 75 71 75 71 64 71 71 76 79 78 77 78 73 72 74 74 74 74 74 75 75 75 75 75 75 74 74 73 74 74 75 74 74 74 73 72 72 72
77 73 70 58 57 66 63 66 73 71 71 75 75 63 69 76 73 75 79 79 78 77 74 71 72 74 74 74 74 74 74 75 75 74 74 74 74 73 73 73 72 73 74 73 73 72 72 72 72
77 69 58 57 59 68 64 66 74 70 70 71 73 64 65 73 77 77 77 79 76 74 72 72 72 73 73 74 74 74 74 74 74 74 73 73 73 73 73 72 72 72 73 73 73 72 72 71 71
65 67 54 52 61 70 73 73 75 73 73 72 70 65 63 72 74 75 77 77 78 73 73 71 68 70 71 72 73 73 73 73 73 73 73 73 72 72 72 72 72 72 72 72 72 71 71 71 71
61 58 55 58 61 61 67 72 72 72 72 70 76 64 63 66 74 76 76 78 76 75 72 70 70 68 68 69 70 71 71 71 72 72 71 71 70 71 70 70 71 71 71 71 71 71 70 70 71
66 62 56 59 60 59 68 72 73 74 69 77 74 62 56 66 75 76 76 77 74 73 73 71 71 71 69 67 66 67 69 69 69 69 68 67 68 68 68 68 69 70 70 70 70 70 70 70 70
69 55 52 57 61 61 72 68 71 73 70 72 71 69 70 71 76 73 71 70 70 70 71 71 70 70 71 70 66 65 66 67 67 66 65 65 67 68 68 66 68 69 69 69 70 70 69 68 67
57 53 57 68 66 62 70 69 70 68 68 65 66 68 69 71 72 70 67 65 66 66 69 72 72 71 72 76 67 68 70 67 70 71 66 68 71 69 70 64 65 66 66 68 69 69 68 64 66
58 54 64 67 65 68 68 68 70 67 64 68 65 62 65 70 70 69 66 65 67 67 67 69 69 72 71 71 69 71 72 69 67 68 68 71 71 67 66 66 65 64 60 66 67 68 66 70 68
51 63 65 68 67 66 66 68 68 67 64 74 73 68 66 68 69 69 67 65 66 68 68 70 70 71 72 71 69 69 67 65 64 66 69 68 67 67 68 67 68 68 68 70 70 67 69 69 70
52 59 64 68 66 66 69 65 66 63 69 74 71 68 67 69 69 71 71 69 68 67 68 69 70 71 72 71 70 70 68 67 68 69 71 69 67 67 68 68 70 71 72 68 67 67 67 67 68
57 60 56 67 66 67 63 64 66 68 71 69 67 63 67 69 69 69 70 70 70 70 69 70 70 72 72 69 70 69 69 69 70 70 70 71 69 68 68 71 70 70 70 68 69 68 65 65 66
56 53 53 61 64 63 66 58 62 67 71 68 65 63 66 68 70 69 70 70 71 70 71 71 71 71 70 70 70 70 70 71 73 71 74 74 73 72 71 69 68 68 69 69 67 65 65 63 65
50 50 44 57 62 63 61 52 64 67 67 65 65 62 65 67 69 70 71 71 71 70 70 71 74 71 70 70 70 70 71 73 72 72 71 72 71 71 69 68 65 65 66 64 62 62 61 60 60
47 42 44 51 62 62 59 54 63 66 67 65 62 62 64 68 70 68 70 71 71 71 71 69 70 69 70 71 71 73 73 71 70 69 67 67 67 68 66 63 63 64 62 61 60 60 59 58 58
39 41 47 48 56 60 56 56 60 62 65 65 62 61 62 63 67 70 72 73 72 71 71 70 70 70 70 71 72 69 69 66 64 63 64 65 65 65 63 62 61 61 59 58 58 56 58 57 55
47 45 45 53 56 56 55 56 59 61 62 62 62 60 62 63 67 70 73 71 70 70 70 70 69 69 68 67 67 66 64 60 59 60 61 61 60 61 60 59 59 58 56 55 56 54 53 53 54
45 44 44 52 51 52 55 54 60 62 61 64 65 62 62 63 65 71 71 72 72 68 68 69 70 69 68 68 68 67 66 60 59 58 58 59 57 57 59 55 54 54 53 51 51 51 50 51 52
42 41 44 44 48 49 48 51 56 62 63 63 64 62 65 66 66 69 68 67 69 66 67 68 67 67 69 69 67 64 63 60 56 54 53 55 56 55 53 53 52 51 51 49 49 49 48 46 49
35 45 44 43 43 38 49 38 52 58 59 62 62 62 63 66 66 66 65 64 63 59 61 61 63 63 64 65 61 59 58 54 54 53 53 52 52 51 51 51 50 49 48 47 47 49 46 46 44
43 47 44 43 41 40 41 39 51 58 56 59 62 63 64 64 63 63 63 60 57 57 56 57 58 60 62 62 61 58 55 54 53 51 50 49 49 50 50 50 48 48 47 46 45 44 44 44 43
50 45 43 42 39 32 39 40 43 52 57 60 63 65 63 63 64 63 59 58 55 55 54 54 55 55 56 57 57 56 56 54 52 51 48 47 47 47 48 50 46 45 46 45 44 45 43 43 41
47 41 31 30 30 31 41 39 42 53 57 61 63 63 60 60 57 55 55 54 55 54 53 53 51 50 51 50 54 55 54 52 51 50 49 48 47 46 46 46 45 44 45 46 45 42 41 40 39
44 42 34 28 29 31 39 33 42 55 55 57 60 58 58 56 55 55 54 53 52 51 49 48 47 47 49 49 49 50 51 49 49 48 47 47 45 44 46 46 45 45 45 44 42 40 40 38 37
42 38 44 35 32 32 36 42 51 53 52 55 55 55 55 54 54 53 52 51 48 47 47 47 46 46 47 47 47 46 47 47 46 45 44 44 45 47 45 44 42 42 42 42 40 37 37 37 36
45 46 36 36 28 27 35 37 43 45 48 52 50 50 50 50 50 50 48 48 48 47 46 48 47 45 45 45 45 44 43 43 42 42 41 42 43 43 42 42 40 40 40 40 39 36 37 36 35
40 38 41 41 37 31 30 37 46 50 52 49 49 51 49 48 47 46 45 45 46 46 45 44 45 44 43 42 41 39 39 39 40 41 42 42 41 41 40 39 39 38 38 37 37 37 36 35 34
40 40 43 34 31 33 32 38 50 50 54 52 51 51 49 49 47 46 44 44 44 44 43 43 42 41 40 40 39 39 40 41 41 39 39 39 37 38 38 38 38 38 37 37 36 34 34 33 31
MSLP
1012.77 1012.26 1011.69 1011.25 1011.56 1010.17 1008.78 1008.43 1007.57 1006.66 1006.88 1006.95 1007.21 1007.88 1009.40 1010.51 1011.35 1012.88 1013.17 1013.47 1014.42 1015.33 1016.16 1016.76 1017.04 1017.27 1017.46 1017.63 1017.83 1018.08 1018.32 1018.53 1018.78 1019.10 1019.33 1019.56 1019.74 1019.83 1019.91 1019.92 1020.00 1020.05 1020.14 1020.20 1020.28 1020.34 1020.44 1020.45 1020.43
1012.55 1011.84 1011.63 1011.18 1010.60 1009.45 1008.15 1007.66 1007.43 1006.53 1006.96 1007.36 1007.83 1008.32 1009.17 1011.49 1012.22 1012.98 1013.51 1013.66 1014.39 1015.33 1016.17 1016.83 1017.22 1017.43 1017.64 1017.87 1018.05 1018.34 1018.56 1018.79 1018.96 1019.23 1019.43 1019.69 1019.83 1019.97 1020.09 1020.15 1020.20 1020.26 1020.36 1020.43 1020.49 1020.57 1020.64 1020.67 1020.68
1012.36 1012.08 1011.84 1010.58 1009.76 1008.86 1007.81 1007.27 1006.75 1007.05 1007.22 1007.62 1008.27 1008.84 1009.89 1012.07 1012.60 1013.19 1013.62 1013.80 1014.47 1015.27 1015.89 1016.95 1017.36 1017.63 1017.93 1018.15 1018.41 1018.66 1018.93 1019.18 1019.39 1019.58 1019.81 1020.00 1020.14 1020.31 1020.39 1020.40 1020.52 1020.36 1020.49 1020.55 1020.64 1020.76 1020.83 1020.87 1020.83
1012.10 1011.84 1011.44 1010.34 1009.16 1007.87 1007.79 1007.41 1006.94 1007.27 1007.66 1007.77 1008.27 1010.21 1011.41 1011.93 1012.31 1012.98 1013.71 1013.99 1014.63 1015.18 1016.13 1017.07 1017.47 1017.74 1018.14 1018.43 1018.69 1018.94 1019.21 1019.46 1019.65 1019.85 1020.07 1020.27 1020.43 1020.57 1020.66 1020.69 1020.68 1020.62 1020.66 1020.82 1020.83 1020.94 1020.97 1020.95 1020.87
1011.63 1011.77 1011.16 1010.03 1008.76 1007.77 1007.69 1007.73 1007.23 1007.41 1007.65 1008.08 1008.37 1010.76 1011.85 1012.72 1012.77 1013.38 1013.81 1014.23 1014.82 1015.72 1016.64 1017.30 1017.67 1017.96 1018.28 1018.58 1018.93 1019.22 1019.44 1019.66 1019.88 1020.05 1020.23 1020.44 1020.59 1020.70 1020.77 1020.84 1020.93 1021.02 1021.08 1021.08 1021.08 1021.04 1020.96 1020.88 1020.78
1012.43 1011.49 1010.92 1009.97 1008.62 1007.49 1006.97 1007.26 1006.88 1006.99 1007.32 1007.97 1009.15 1010.78 1012.76 1013.12 1013.43 1013.66 1013.95 1014.36 1014.88 1016.03 1016.83 1017.53 1018.03 1018.31 1018.57 1018.89 1019.21 1019.48 1019.67 1019.87 1020.06 1020.24 1020.37 1020.56 1020.70 1020.83 1020.97 1021.06 1021.08 1021.06 1021.07 1021.03 1020.99 1020.95 1020.90 1020.84 1020.74
1012.84 1012.14 1010.96 1010.04 1008.68 1007.91 1007.71 1006.66 1006.55 1006.78 1007.27 1008.07 1008.50 1010.77 1013.24 1013.50 1013.57 1013.79 1014.07 1014.51 1015.12 1015.99 1016.90 1017.63 1018.16 1018.62 1018.86 1019.22 1019.50 1019.72 1019.86 1020.00 1020.13 1020.33 1020.53 1020.74 1020.90 1020.99 1021.05 1021.07 1021.09 1021.07 1021.02 1020.96 1020.92 1020.88 1020.83 1020.77 1020.61
1012.57 1011.97 1010.98 1009.94 1008.87 1008.58 1008.44 1006.93 1006.53 1006.77 1007.72 1007.82 1008.59 1010.31 1012.66 1013.23 1013.39 1013.80 1014.24 1014.76 1015.56 1016.39 1016.92 1017.53 1018.05 1018.54 1018.97 1019.41 1019.69 1019.89 1020.05 1020.17 1020.33 1020.56 1020.82 1020.90 1020.94 1020.93 1020.98 1021.07 1021.05 1021.05 1021.05 1021.01 1020.90 1020.82 1020.76 1020.61 1020.39
1012.79 1012.22 1010.82 1009.65 1008.98 1008.72 1008.02 1007.49 1007.12 1007.41 1007.95 1008.54 1009.50 1010.10 1010.73 1012.54 1013.26 1013.92 1014.59 1015.43 1016.08 1016.49 1016.99 1017.36 1017.90 1018.28 1018.65 1019.23 1019.77 1020.04 1020.25 1020.41 1020.51 1020.61 1020.69 1020.71 1020.73 1020.73 1020.76 1020.92 1020.92 1020.94 1020.91 1020.80 1020.69 1020.62 1020.53 1020.40 1020.18
1013.22 1011.77 1010.29 1009.35 1008.85 1008.14 1007.76 1007.69 1007.43 1007.84 1008.43 1009.45 1010.40 1011.27 1011.96 1012.59 1013.31 1013.94 1014.86 1015.91 1016.60 1016.99 1017.19 1017.36 1017.60 1017.92 1018.25 1018.64 1019.58 1019.78 1019.99 1020.25 1020.27 1020.32 1020.50 1020.42 1020.26 1020.44 1020.53 1020.70 1020.67 1020.65 1020.61 1020.49 1020.45 1020.39 1020.29 1020.29 1020.09
1012.48 1010.71 1010.22 1009.24 1009.14 1009.52 1008.37 1007.69 1007.49 1007.93 1008.56 1009.04 1010.22 1011.65 1012.52 1012.72 1013.51 1014.20 1015.29 1016.36 1016.67 1017.13 1017.41 1017.73 1017.65 1017.79 1018.08 1018.53 1019.13 1019.49 1019.81 1020.08 1020.34 1020.38 1020.34 1020.12 1020.21 1020.33 1020.46 1020.46 1020.58 1020.59 1020.55 1020.37 1020.25 1019.98 1020.07 1019.78 1019.70
1012.37 1011.02 1010.08 1009.71 1009.55 1010.03 1008.41 1008.09 1007.99 1008.07 1008.55 1008.33 1009.46 1011.15 1012.32 1012.71 1013.31 1014.00 1014.98 1016.05 1016.61 1017.16 1017.57 1017.97 1017.92 1017.83 1018.13 1018.42 1018.89 1019.27 1019.80 1020.25 1020.48 1020.42 1020.31 1020.28 1020.35 1020.27 1020.26 1020.25 1020.19 1020.18 1020.09 1019.94 1019.80 1019.84 1019.70 1019.65 1019.50
1012.19 1011.01 1010.60 1009.98 1009.61 1009.95 1008.85 1008.43 1008.24 1008.23 1008.60 1008.88 1009.93 1011.17 1012.11 1012.68 1013.27 1013.81 1014.39 1015.40 1016.24 1016.86 1017.31 1017.72 1017.57 1017.68 1017.94 1018.27 1018.67 1018.98 1019.46 1019.74 1019.84 1019.96 1020.00 1020.10 1020.27 1020.26 1020.18 1020.18 1020.09 1020.02 1019.98 1020.11 1020.12 1020.01 1019.93 1019.86 1019.62
1011.34 1011.10 1010.80 1010.02 1009.76 1009.44 1009.17 1008.65 1008.47 1008.46 1008.67 1009.55 1010.69 1011.62 1012.02 1012.50 1013.01 1013.65 1014.18 1014.92 1015.67 1016.31 1016.86 1017.26 1017.37 1017.41 1017.84 1018.41 1018.67 1019.00 1019.20 1019.43 1019.53 1019.77 1019.90 1020.01 1020.13 1020.15 1020.22 1020.09 1020.21 1020.29 1020.26 1020.23 1020.15 1020.03 1020.03 1019.90 1019.60
1011.24 1011.09 1011.59 1010.55 1009.61 1009.35 1009.25 1008.87 1008.48 1008.80 1008.80 1009.80 1011.04 1011.86 1012.11 1012.47 1012.91 1013.42 1013.89 1014.63 1015.28 1015.80 1016.37 1016.90 1017.19 1017.40 1017.91 1018.38 1018.60 1018.86 1019.07 1019.32 1019.48 1019.67 1019.77 1019.92 1020.06 1020.09 1020.13 1020.30 1020.47 1020.45 1020.26 1020.30 1020.37 1020.36 1020.13 1020.16 1019.93
1010.94 1011.27 1010.97 1009.94 1009.30 1009.33 1009.21 1008.60 1008.60 1008.86 1008.81 1010.05 1010.99 1011.98 1012.24 1012.46 1012.76 1013.18 1013.62 1014.30 1015.01 1015.49 1016.15 1016.65 1017.12 1017.67 1017.95 1018.23 1018.53 1018.74 1019.12 1019.23 1019.48 1019.78 1020.04 1020.19 1020.38 1020.35 1020.44 1020.62 1020.93 1020.89 1020.87 1020.98 1021.04 1020.94 1020.88 1020.82 1020.69
1010.57 1010.27 1010.55 1009.92 1009.25 1009.25 1009.48 1008.84 1008.29 1008.69 1008.93 1010.11 1010.98 1012.05 1012.67 1012.65 1012.81 1013.34 1013.70 1014.19 1014.81 1015.26 1015.93 1016.64 1017.10 1017.64 1018.03 1018.06 1018.32 1018.53 1018.97 1019.43 1019.90 1020.25 1020.60 1020.91 1021.01 1020.85 1020.94 1021.32 1021.53 1021.41 1021.49 1021.65 1021.65 1021.60 1021.44 1021.36 1021.26
1011.05 1010.56 1010.15 1009.47 1009.48 1009.47 1009.71 1009.15 1008.69 1008.69 1008.51 1010.06 1010.97 1012.04 1012.66 1012.95 1013.04 1013.36 1013.46 1013.90 1014.58 1015.02 1015.75 1016.47 1017.10 1017.47 1017.87 1018.10 1018.24 1018.98 1019.67 1020.32 1020.80 1021.23 1021.36 1021.45 1021.47 1021.41 1021.46 1021.73 1021.93 1021.93 1022.14 1022.30 1022.26 1022.24 1022.00 1021.95 1021.77
1011.30 1010.93 1010.30 1009.58 1009.53 1009.62 1009.39 1009.11 1008.98 1008.99 1009.33 1010.25 1010.78 1011.43 1012.26 1012.82 1013.15 1012.97 1013.14 1013.73 1014.51 1014.99 1015.58 1016.25 1016.87 1017.34 1017.73 1018.22 1018.77 1019.49 1020.31 1021.22 1021.84 1022.02 1022.10 1022.28 1022.37 1022.24 1022.30 1022.51 1022.59 1022.57 1022.88 1023.16 1023.05 1022.83 1022.71 1022.56 1022.44
1011.52 1010.78 1010.52 1010.05 1010.29 1010.01 1009.49 1009.22 1008.86 1008.75 1009.02 1009.36 1009.43 1010.63 1011.45 1012.27 1012.79 1012.64 1013.11 1013.79 1014.57 1015.17 1015.71 1016.15 1016.64 1017.23 1017.69 1018.20 1018.62 1019.42 1020.43 1021.56 1022.26 1022.63 1022.80 1023.02 1023.13 1023.12 1023.08 1023.32 1023.35 1023.46 1023.62 1023.82 1023.86 1023.72 1023.70 1023.41 1023.22
1011.98 1011.34 1010.80 1010.82 1011.10 1011.16 1010.82 1009.63 1009.18 1008.42 1008.27 1008.81 1008.93 1010.19 1010.75 1011.43 1012.09 1012.58 1013.31 1014.12 1014.84 1015.57 1016.05 1016.57 1016.92 1017.43 1017.90 1018.28 1018.94 1019.88 1020.76 1021.80 1022.60 1023.22 1023.64 1023.79 1023.80 1023.96 1024.05 1024.06 1024.21 1024.18 1024.26 1024.49 1024.51 1024.30 1024.36 1024.41 1023.99
1012.49 1012.20 1012.06 1011.72 1011.56 1011.58 1011.32 1009.83 1008.63 1008.28 1008.35 1008.54 1009.13 1010.09 1010.67 1011.23 1012.10 1012.93 1014.04 1015.05 1015.67 1016.45 1016.69 1017.19 1017.71 1018.10 1018.31 1018.66 1019.47 1020.25 1021.18 1022.16 1023.04 1023.56 1024.15 1024.49 1024.51 1024.56 1024.66 1024.78 1024.84 1024.96 1024.95 1024.89 1024.96 1024.80 1025.03 1024.92 1025.02
1011.78 1012.28 1012.50 1012.67 1012.44 1012.28 1011.67 1010.87 1008.10 1008.24 1008.24 1008.47 1008.89 1009.56 1010.38 1011.44 1012.53 1013.41 1014.75 1015.83 1016.87 1017.47 1017.94 1018.26 1018.57 1018.88 1018.96 1019.15 1019.76 1020.76 1021.71 1022.57 1023.35 1024.00 1024.51 1025.01 1025.21 1025.22 1025.18 1025.37 1025.43 1025.51 1025.60 1025.74 1025.61 1025.63 1025.71 1025.58 1025.62
1011.15 1012.29 1012.63 1013.06 1013.19 1012.82 1011.85 1010.90 1009.07 1007.91 1007.77 1008.16 1008.47 1009.06 1010.14 1011.37 1012.54 1013.86 1015.48 1016.60 1017.86 1018.39 1018.70 1019.07 1019.34 1019.81 1019.94 1020.08 1020.63 1021.36 1022.20 1023.09 1023.78 1024.37 1024.78 1025.23 1025.65 1025.86 1025.84 1025.98 1026.12 1025.99 1026.01 1026.36 1026.43 1026.28 1026.34 1026.47 1026.42
1011.39 1012.05 1012.83 1013.59 1013.46 1012.70 1011.99 1011.58 1009.78 1008.82 1008.58 1008.02 1008.10 1009.18 1010.29 1011.82 1013.43 1014.84 1016.18 1017.61 1018.50 1019.05 1019.41 1019.95 1020.45 1020.95 1021.25 1021.43 1021.85 1022.46 1023.12 1023.78 1024.33 1024.70 1025.10 1025.39 1025.73 1026.06 1026.28 1026.16 1026.52 1026.75 1026.48 1026.54 1026.69 1026.97 1027.07 1027.36 1027.29
1011.39 1011.85 1012.27 1012.64 1012.97 1012.88 1012.24 1011.40 1010.11 1009.26 1009.20 1008.98 1008.70 1009.88 1011.56 1013.05 1014.42 1015.55 1016.87 1018.08 1019.02 1019.65 1020.25 1020.89 1021.38 1021.98 1022.24 1022.53 1023.02 1023.47 1023.98 1024.55 1025.12 1025.61 1025.98 1026.37 1026.46 1026.28 1026.36 1026.48 1026.53 1027.03 1027.00 1027.09 1027.33 1027.58 1027.59 1027.91 1027.76
1011.66 1011.92 1012.35 1012.25 1013.21 1012.94 1012.58 1011.46 1010.05 1009.77 1010.06 1010.18 1010.51 1011.32 1012.71 1014.14 1015.35 1016.43 1017.68 1018.87 1019.70 1020.47 1020.99 1021.41 1022.00 1022.66 1023.03 1023.40 1023.93 1024.54 1024.92 1025.45 1025.88 1025.98 1026.45 1026.69 1026.45 1026.34 1026.89 1027.09 1027.18 1027.57 1027.43 1027.48 1027.69 1028.10 1028.20 1028.13 1028.15
1011.61 1011.97 1012.65 1012.64 1012.95 1012.54 1012.28 1011.45 1010.11 1010.01 1010.58 1011.24 1011.72 1012.53 1013.75 1015.16 1016.43 1017.60 1018.68 1019.65 1020.43 1021.15 1021.55 1022.01 1022.49 1022.92 1023.38 1023.84 1024.32 1024.91 1026.09 1026.23 1026.64 1026.79 1026.76 1027.02 1026.91 1027.22 1027.34 1027.50 1027.79 1027.94 1027.82 1027.90 1028.17 1028.30 1028.43 1028.59 1028.58
1012.56 1012.41 1012.63 1012.76 1012.37 1012.22 1012.10 1011.07 1010.33 1009.91 1010.30 1011.42 1012.45 1013.40 1014.61 1015.91 1017.34 1018.53 1019.55 1020.38 1020.96 1021.43 1022.03 1022.52 1022.75 1023.10 1023.67 1024.26 1025.01 1025.48 1025.56 1026.10 1026.55 1027.07 1027.25 1027.60 1027.79 1027.92 1027.93 1027.94 1028.11 1028.27 1028.30 1028.44 1028.35 1028.37 1028.77 1028.93 1029.03
1013.53 1012.88 1012.45 1012.51 1012.72 1012.33 1011.89 1011.24 1010.62 1010.21 1010.26 1011.47 1012.82 1013.98 1015.29 1016.41 1017.83 1019.09 1020.07 1020.79 1021.47 1021.98 1022.57 1022.96 1023.34 1023.63 1024.10 1024.57 1024.95 1025.22 1025.31 1026.03 1026.85 1027.50 1027.54 1028.11 1028.28 1028.06 1028.12 1028.26 1028.39 1028.45 1028.48 1028.48 1028.67 1028.78 1028.89 1028.97 1029.22
Wind_Speed
7 8 7 3 3 5 10 4 17 5 7 4 9 8 12 12 6 7 8 13 18 15 13 10 11 11 11 11 10 11 12 15 16 14 14 12 12 12 11 11 12 11 11 11 11 11 10 10 9
6 11 3 4 5 7 9 8 17 8 8 9 7 2 5 6 5 10 5 12 20 15 12 12 11 11 13 12 12 12 12 13 14 14 13 12 11 10 10 10 10 10 9 9 9 9 8 8 8
7 7 2 4 6 11 4 1 8 10 9 6 5 8 6 5 11 9 9 10 19 13 13 12 11 13 13 14 15 14 14 13 13 12 11 10 10 9 9 10 9 6 8 7 7 7 6 6 7
4 3 4 5 12 16 5 5 12 9 2 2 11 9 6 10 5 9 12 10 14 11 15 12 12 13 14 13 14 13 12 11 11 11 10 9 9 9 8 7 6 8 7 7 5 5 5 6 7
4 4 5 8 16 17 7 3 8 9 8 6 4 8 8 8 14 14 12 10 12 14 12 10 11 11 14 13 12 11 11 10 10 10 10 9 8 8 7 7 6 6 5 5 4 4 5 5 5
4 3 4 9 16 10 5 17 8 8 8 7 12 9 5 4 12 11 10 10 12 15 12 10 9 9 10 11 10 10 10 10 10 9 9 8 7 6 6 5 4 4 3 3 3 3 4 5 6
10 5 10 16 16 4 11 2 6 6 8 5 11 8 5 6 10 10 9 11 11 14 13 10 8 8 10 10 10 9 9 9 9 8 8 7 6 5 4 2 1 1 2 3 4 5 6 7 8
8 6 12 16 13 2 9 4 3 8 5 7 5 6 8 11 14 10 9 13 10 13 13 10 10 8 7 6 8 8 8 8 7 7 6 4 5 6 5 4 2 2 4 6 7 7 8 9 10
11 5 10 17 12 5 6 3 2 3 7 5 4 6 15 18 16 10 9 12 7 4 9 8 8 7 8 8 6 7 7 6 6 6 6 5 4 6 6 5 4 4 6 7 8 8 9 9 11
10 9 13 12 9 5 5 5 8 4 8 5 8 16 19 15 16 14 10 9 7 4 5 6 7 7 8 9 7 6 6 5 4 4 6 5 1 4 1 3 7 7 8 9 9 9 10 6 4
9 12 14 4 8 11 5 3 2 5 7 9 14 16 16 13 14 14 12 10 8 7 4 3 1 5 5 6 5 3 3 2 2 3 5 1 1 2 3 2 2 4 6 4 5 5 4 3 3
5 20 13 7 8 11 2 3 3 5 4 3 19 19 17 16 15 15 16 15 13 11 9 6 7 4 6 4 4 5 4 3 3 5 6 1 1 1 2 0 2 2 3 3 3 3 4 5 6
20 9 12 9 7 8 6 5 1 1 9 8 18 17 17 14 12 10 12 15 12 12 11 10 7 7 5 5 2 4 5 4 5 4 3 0 2 1 2 2 2 2 3 4 4 4 4 5 5
17 18 6 12 7 5 3 3 3 5 8 15 14 11 12 14 12 8 9 13 12 12 12 11 8 7 6 4 4 3 3 3 2 2 3 3 1 1 2 3 4 4 4 4 4 4 4 4 4
9 20 12 20 8 5 6 6 6 6 9 11 12 10 9 11 12 10 9 12 10 8 10 11 7 7 8 6 5 4 3 3 3 2 2 3 3 4 3 3 4 3 3 5 5 5 5 5 5
11 10 18 16 11 5 3 5 10 7 10 10 11 9 7 9 11 10 9 9 9 8 9 8 7 7 7 6 5 4 5 3 3 4 4 6 6 6 5 4 5 5 5 5 5 4 5 5 5
7 6 16 14 14 7 8 6 10 12 9 9 10 10 10 13 9 7 8 10 10 8 9 8 8 8 7 6 5 4 5 5 6 7 5 7 7 7 6 5 5 6 5 5 5 4 4 4 5
9 6 19 15 16 17 10 8 6 3 10 6 11 10 10 11 13 13 13 12 9 9 9 10 7 8 7 5 4 6 7 7 7 5 5 8 6 8 6 5 6 5 5 6 6 5 5 3 4
5 14 9 14 8 17 17 12 8 9 7 9 15 14 12 13 12 12 13 10 9 8 9 9 8 8 5 4 4 5 5 5 5 6 8 9 8 8 8 6 7 6 7 6 7 5 6 5 6
11 12 19 9 8 2 12 12 10 9 11 9 9 14 14 14 14 12 13 10 10 7 8 8 8 8 5 5 4 5 7 6 6 5 7 8 9 9 9 7 6 7 5 7 6 6 4 4 6
7 4 6 4 7 3 6 13 17 7 7 9 6 3 10 14 15 12 10 8 7 7 7 7 7 6 5 9 10 9 9 6 5 5 5 7 9 8 8 8 7 6 5 5 5 6 7 4 4
2 1 3 3 14 10 7 7 14 14 8 9 12 7 8 10 11 11 10 7 10 8 9 9 8 7 6 8 8 9 6 6 5 6 6 6 7 8 8 8 7 6 4 6 5 6 4 4 5
5 8 6 3 2 3 4 3 11 15 14 13 11 15 12 14 10 15 10 12 9 8 7 7 8 7 6 6 7 8 10 7 5 5 7 7 7 7 7 7 7 7 6 6 7 6 7 4 4
11 6 5 4 1 3 6 2 6 12 16 14 13 14 15 17 15 14 14 13 8 7 7 8 9 9 11 11 11 11 12 9 7 5 5 5 4 5 8 8 6 6 6 6 5 6 7 6 5
5 3 3 2 2 1 1 8 7 4 8 3 16 13 12 14 16 15 14 11 9 9 9 10 12 12 12 13 13 12 11 10 9 6 5 5 5 4 5 6 7 5 5 5 6 6 7 6 5
9 9 2 1 3 3 3 4 4 5 5 7 5 17 15 15 13 13 12 12 11 11 11 12 11 12 12 12 12 10 10 7 7 7 6 5 4 4 6 5 6 6 6 6 6 5 4 5 4
5 4 3 6 1 4 3 5 6 7 5 5 11 15 13 13 12 13 13 11 11 10 10 12 12 12 11 11 10 11 9 9 7 8 6 4 4 6 5 6 6 5 5 6 6 4 4 5 5
1 7 4 3 5 3 4 3 3 7 9 9 9 12 12 12 12 12 12 11 9 10 10 11 11 12 11 11 9 9 7 7 6 6 7 6 5 5 5 5 6 5 5 6 5 4 5 5 4
3 4 3 0 1 1 4 3 3 6 12 13 9 11 13 13 13 11 10 9 9 9 9 9 10 11 10 9 8 7 8 7 7 5 5 4 4 4 5 5 5 5 6 5 5 5 5 5 5
1 3 4 3 4 0 3 1 4 6 11 13 11 14 14 13 13 11 9 9 9 9 8 7 7 8 8 7 7 7 8 7 6 5 5 4 4 4 5 4 5 4 4 4 5 4 4 4 5
Wind_Direction
276 246 250 266 254 230 239 205 249 139 144 48 47 43 97 42 25 114 145 119 121 125 125 134 130 121 103 114 119 127 136 126 117 115 108 100 95 92 85 77 83 76 74 72 69 64 59 52 41
283 283 252 271 240 246 236 132 262 100 90 92 100 98 69 80 66 111 105 133 124 128 144 132 125 118 103 101 103 110 103 114 113 109 102 100 91 88 86 84 75 79 75 72 69 63 55 41 28
267 276 257 218 238 249 259 68 115 96 116 151 103 35 52 86 128 145 125 148 123 141 138 123 128 121 112 103 98 96 94 95 96 95 92 91 90 83 74 72 70 73 77 67 67 55 40 23 14
286 215 256 252 252 244 125 292 113 120 54 355 106 84 78 113 116 113 139 138 131 133 111 124 135 126 119 108 103 103 102 98 97 95 91 90 85 81 83 82 76 49 53 43 70 39 22 9 5
277 261 252 232 254 264 126 24 155 165 150 172 184 87 92 73 101 134 137 143 116 103 113 128 133 121 122 116 111 106 101 99 96 95 96 97 99 98 94 85 72 59 49 40 32 18 5 352 341
288 234 257 247 243 252 297 174 158 185 156 121 103 108 88 101 131 140 144 133 124 120 131 132 121 118 112 106 107 105 104 106 103 104 108 112 107 100 86 72 64 58 40 18 353 332 326 321 321
255 271 258 257 246 136 265 39 178 147 132 161 124 114 103 226 144 145 149 131 124 126 121 126 129 114 108 113 107 105 106 110 113 111 107 102 101 107 118 127 91 18 332 310 309 310 307 304 299
269 268 268 254 268 172 319 194 328 149 89 69 19 141 154 201 146 151 144 119 120 131 135 150 136 146 137 130 116 115 115 112 110 107 112 142 170 178 194 189 203 276 296 297 298 298 296 291 286
292 246 233 251 248 205 197 234 249 36 118 89 48 32 125 167 146 147 141 107 97 93 136 144 146 160 151 136 134 127 122 121 139 152 181 222 215 206 200 165 181 258 272 278 277 277 278 278 280
237 209 240 242 343 108 191 270 143 152 130 103 92 85 125 160 154 152 132 129 134 117 89 140 159 162 161 142 155 177 159 185 187 195 191 218 146 84 280 200 215 231 241 253 257 260 265 276 270
232 218 229 264 56 317 165 196 337 204 168 167 152 137 151 161 160 147 138 157 163 143 103 96 259 149 143 125 147 139 150 76 40 341 313 298 59 212 209 204 217 239 227 268 213 247 229 289 288
245 219 239 261 107 289 232 56 198 247 68 46 149 146 159 164 164 162 154 159 168 161 153 165 217 180 167 148 160 146 138 147 194 211 229 249 262 179 257 239 306 246 211 261 305 318 317 317 317
212 230 215 255 148 243 327 248 287 287 120 76 122 145 162 163 164 160 151 152 166 166 167 178 212 171 164 119 178 135 141 180 197 171 151 103 301 282 307 327 287 333 341 25 348 338 348 344 329
197 217 265 232 213 221 264 272 102 202 111 116 127 154 167 164 162 153 155 153 161 167 167 169 197 153 139 154 141 140 161 138 118 124 123 165 239 301 350 341 12 9 9 354 348 351 313 298 311
197 193 232 232 189 233 219 247 201 144 144 129 142 157 179 165 160 165 154 151 163 159 160 162 159 157 139 166 155 152 119 110 150 121 115 47 12 357 346 38 37 15 8 5 17 350 2 359 345
162 183 215 208 187 208 226 243 187 162 139 147 144 143 181 163 165 151 143 146 143 152 145 144 147 158 152 171 158 146 139 164 107 70 68 49 27 11 51 48 29 3 21 35 7 1 7 354 4
187 180 198 180 198 213 191 246 140 157 143 155 133 142 177 177 161 140 179 155 156 158 147 145 147 160 172 159 172 131 107 78 64 57 47 51 29 19 57 46 22 20 28 32 10 358 14 8 348
203 198 193 188 188 206 202 243 139 178 129 189 145 155 178 179 188 186 181 152 156 148 150 149 161 160 161 155 133 78 75 64 54 42 49 41 35 28 51 45 31 40 37 27 14 4 349 13 1
244 198 206 176 193 191 189 222 180 166 172 203 165 158 179 188 191 206 156 139 145 148 151 151 157 159 144 138 134 112 101 84 69 52 54 50 33 38 35 44 35 28 50 31 20 353 1 4 0
260 202 205 203 124 357 198 203 235 164 182 185 158 157 171 176 195 181 151 145 145 144 145 147 155 144 147 154 150 112 117 96 91 70 59 57 48 35 48 42 41 34 45 35 25 17 355 341 23
349 349 161 184 185 284 310 217 201 207 182 157 136 229 164 172 176 155 131 125 128 126 112 93 88 99 93 97 97 95 97 97 92 68 54 48 50 46 41 44 40 40 44 37 23 24 28 358 355
274 169 359 345 162 200 222 212 207 196 188 160 173 186 181 157 140 128 122 112 91 71 69 74 75 75 87 98 104 121 124 108 94 96 86 65 55 52 46 43 40 39 31 42 20 33 20 20 21
143 156 190 21 183 118 202 219 207 184 205 177 173 175 173 150 161 129 127 101 89 81 86 85 80 73 60 100 111 101 101 102 99 93 98 86 61 46 48 43 40 35 33 26 33 37 25 17 44
135 137 93 77 100 186 186 225 258 185 194 176 180 178 174 149 142 119 103 99 96 94 85 85 81 60 52 63 78 95 104 108 108 102 94 84 72 51 37 43 40 39 38 28 29 32 35 23 37
120 113 108 150 161 136 284 186 263 15 356 173 173 165 140 129 117 112 114 118 113 101 91 88 75 67 62 63 67 75 82 84 87 87 94 93 79 67 49 51 42 27 29 42 47 33 41 23 40
184 170 113 6 157 107 358 200 255 86 44 2 55 112 116 114 119 127 123 117 111 96 89 90 88 83 78 75 69 69 73 77 70 59 56 59 75 67 49 55 58 48 32 47 47 33 39 36 43
158 185 312 100 278 106 201 252 281 145 103 72 93 104 108 114 124 116 115 109 103 103 103 108 106 94 84 82 79 70 67 73 82 82 78 73 56 69 59 54 64 48 47 45 60 53 35 45 35
240 132 86 334 147 185 177 262 227 158 155 147 128 123 114 104 107 108 108 114 113 114 109 108 107 105 106 97 96 95 80 81 82 77 69 61 62 63 71 66 61 56 51 49 63 48 30 45 27
90 133 122 23 356 163 145 219 330 193 168 155 148 135 123 122 121 120 118 125 126 116 118 118 115 112 101 97 97 111 115 95 80 85 80 76 78 85 80 74 72 60 55 39 50 58 40 48 42
287 331 160 172 219 109 126 25 349 315 138 141 143 134 133 134 130 128 128 128 129 128 133 124 121 119 124 135 129 114 100 90 98 105 101 121 125 87 82 85 79 69 73 58 57 60 51 56 47